"read_dt","SO2 (ppb)","flags","PMT voltage (V)","lamp voltage (V)","lamp intensity (Hz)","internal temp (C)","react chamber temp (C)","sample flow (l/min)","pres (mmHg)","SO2 bkg (ppb)","SO2 coefficient"
2016-10-20 00:00:00,1525E-3,5C000000,-0724,0830,12296,030.6,045.5,0.449,743.8,01.18,0.508
2016-10-20 00:01:00,1536E-3,5C000000,-0724,0830,12319,030.6,045.6,0.449,743.8,01.18,0.508
2016-10-20 00:02:00,1654E-3,5C000000,-0724,0830,12103,030.6,045.5,0.449,743.8,01.18,0.508
2016-10-20 00:03:00,1440E-3,5C000000,-0724,0829,12142,030.6,045.5,0.449,743.8,01.18,0.508
2016-10-20 00:04:00,1532E-3,5C000000,-0724,0830,12210,030.6,045.5,0.449,743.8,01.18,0.508
2016-10-20 00:05:00,1610E-3,5C000000,-0724,0829,12313,030.6,045.5,0.449,743.8,01.18,0.508
2016-10-20 00:06:00,1552E-3,5C000000,-0724,0830,12127,030.6,045.5,0.449,743.8,01.18,0.508
2016-10-20 00:07:00,1604E-3,5C000000,-0724,0830,12251,030.6,045.6,0.449,743.8,01.18,0.508
2016-10-20 00:08:00,1580E-3,5C000000,-0724,0829,12047,030.6,045.5,0.449,743.8,01.18,0.508
2016-10-20 00:09:00,1629E-3,5C000000,-0724,0830,12236,030.6,045.5,0.449,743.8,01.18,0.508
2016-10-20 00:10:00,1451E-3,5C000000,-0724,0829,12139,030.6,045.5,0.449,743.8,01.18,0.508
2016-10-20 00:11:00,1621E-3,5C000000,-0724,0829,12165,030.6,045.6,0.449,743.8,01.18,0.508
2016-10-20 00:12:00,1499E-3,5C000000,-0724,0828,12186,030.7,045.6,0.450,743.8,01.18,0.508
2016-10-20 00:13:00,1594E-3,5C000000,-0724,0829,12184,030.6,045.5,0.450,743.8,01.18,0.508
2016-10-20 00:14:00,1473E-3,5C000000,-0724,0829,12263,030.6,045.6,0.450,743.9,01.18,0.508
2016-10-20 00:15:00,1623E-3,5C000000,-0724,0829,12309,030.7,045.6,0.450,743.9,01.18,0.508
2016-10-20 00:16:00,1618E-3,5C000000,-0724,0830,12205,030.7,045.5,0.450,743.9,01.18,0.508
2016-10-20 00:17:00,1608E-3,5C000000,-0724,0830,12294,030.7,045.5,0.450,743.9,01.18,0.508
2016-10-20 00:18:00,1614E-3,5C000000,-0724,0829,12172,030.7,045.5,0.450,743.9,01.18,0.508
2016-10-20 00:19:00,1468E-3,5C000000,-0724,0830,12270,030.7,045.5,0.450,743.9,01.18,0.508
2016-10-20 00:20:00,1604E-3,5C000000,-0724,0829,12282,030.7,045.5,0.450,743.9,01.18,0.508
2016-10-20 00:21:00,1656E-3,5C000000,-0724,0829,12073,030.7,045.6,0.450,743.9,01.18,0.508
2016-10-20 00:22:00,1593E-3,5C000000,-0724,0829,12104,030.7,045.5,0.450,743.8,01.18,0.508
2016-10-20 00:23:00,1500E-3,5C000000,-0724,0830,12252,030.7,045.5,0.450,743.8,01.18,0.508
2016-10-20 00:24:00,1602E-3,5C000000,-0724,0829,12120,030.7,045.5,0.450,743.9,01.18,0.508
2016-10-20 00:25:00,1598E-3,5C000000,-0724,0829,12292,030.7,045.6,0.450,743.9,01.18,0.508
2016-10-20 00:26:00,1681E-3,5C000000,-0724,0830,12338,030.7,045.5,0.450,743.9,01.18,0.508
2016-10-20 00:27:00,1432E-3,5C000000,-0724,0829,12260,030.7,045.5,0.450,743.9,01.18,0.508
2016-10-20 00:28:00,1595E-3,5C000000,-0724,0829,12308,030.7,045.5,0.450,743.9,01.18,0.508
2016-10-20 00:29:00,1595E-3,5C000000,-0724,0829,11993,030.7,045.5,0.450,743.9,01.18,0.508
2016-10-20 00:30:00,1593E-3,5C000000,-0724,0829,11956,030.6,045.5,0.450,743.9,01.18,0.508
2016-10-20 00:31:00,1467E-3,5C000000,-0724,0830,12109,030.7,045.5,0.450,743.9,01.18,0.508
2016-10-20 00:32:00,1642E-3,5C000000,-0724,0829,12016,030.7,045.5,0.449,743.9,01.18,0.508
2016-10-20 00:33:00,1643E-3,5C000000,-0724,0829,12409,030.6,045.5,0.449,743.9,01.18,0.508
2016-10-20 00:34:00,1632E-3,5C000000,-0724,0827,12338,030.6,045.5,0.449,743.9,01.18,0.508
2016-10-20 00:35:00,1568E-3,5C000000,-0724,0828,12156,030.7,045.5,0.449,743.8,01.18,0.508
2016-10-20 00:36:00,1608E-3,5C000000,-0724,0829,12215,030.7,045.5,0.449,743.9,01.18,0.508
2016-10-20 00:37:00,1554E-3,5C000000,-0724,0830,12197,030.7,045.5,0.449,743.9,01.18,0.508
2016-10-20 00:38:00,1476E-3,5C000000,-0724,0828,12219,030.7,045.6,0.449,743.9,01.18,0.508
2016-10-20 00:39:00,1573E-3,5C000000,-0724,0829,12245,030.7,045.6,0.449,743.9,01.18,0.508
2016-10-20 00:40:00,1654E-3,5C000000,-0724,0829,12163,030.7,045.5,0.449,743.9,01.18,0.508
2016-10-20 00:41:00,1472E-3,5C000000,-0724,0829,12261,030.7,045.5,0.449,743.9,01.18,0.508
2016-10-20 00:42:00,1635E-3,5C000000,-0724,0829,12014,030.6,045.5,0.449,743.8,01.18,0.508
2016-10-20 00:43:00,1631E-3,5C000000,-0724,0828,12139,030.6,045.5,0.449,743.9,01.18,0.508
2016-10-20 00:44:00,1591E-3,5C000000,-0724,0829,12146,030.6,045.5,0.449,743.9,01.18,0.508
2016-10-20 00:45:00,1567E-3,5C000000,-0724,0828,12248,030.6,045.5,0.449,743.8,01.18,0.508
2016-10-20 00:46:00,1535E-3,5C000000,-0724,0829,12285,030.6,045.5,0.449,743.8,01.18,0.508
2016-10-20 00:47:00,1550E-3,5C000000,-0724,0830,12238,030.6,045.5,0.449,743.8,01.18,0.508
2016-10-20 00:48:00,1586E-3,5C000000,-0724,0828,12303,030.6,045.5,0.450,743.8,01.18,0.508
2016-10-20 00:49:00,1544E-3,5C000000,-0724,0828,12147,030.6,045.5,0.450,743.8,01.18,0.508
2016-10-20 00:50:00,1579E-3,5C000000,-0724,0829,12230,030.6,045.5,0.450,743.7,01.18,0.508
2016-10-20 00:51:00,1407E-3,5C000000,-0724,0828,12240,030.6,045.5,0.450,743.8,01.18,0.508
2016-10-20 00:52:00,1558E-3,5C000000,-0724,0829,12141,030.6,045.6,0.450,743.8,01.18,0.508
2016-10-20 00:53:00,1456E-3,5C000000,-0724,0829,12134,030.6,045.5,0.450,743.8,01.18,0.508
2016-10-20 00:54:00,1552E-3,5C000000,-0724,0828,12220,030.6,045.5,0.450,743.8,01.18,0.508
2016-10-20 00:55:00,1528E-3,5C000000,-0724,0829,12307,030.6,045.5,0.450,743.8,01.18,0.508
2016-10-20 00:56:00,1580E-3,5C000000,-0724,0830,12264,030.6,045.5,0.450,743.7,01.18,0.508
2016-10-20 00:57:00,1606E-3,5C000000,-0724,0829,12179,030.6,045.5,0.450,743.7,01.18,0.508
2016-10-20 00:58:00,1634E-3,5C000000,-0724,0829,12179,030.6,045.5,0.450,743.8,01.18,0.508
2016-10-20 00:59:00,1532E-3,5C000000,-0724,0828,12161,030.6,045.5,0.450,743.8,01.18,0.508
2016-10-20 01:00:00,1458E-3,5C000000,-0724,0829,12035,030.6,045.5,0.450,743.8,01.18,0.508
2016-10-20 01:01:00,1649E-3,5C000000,-0724,0830,12187,030.6,045.5,0.450,743.8,01.18,0.508
2016-10-20 01:02:00,1409E-3,5C000000,-0724,0829,12148,030.5,045.5,0.449,743.8,01.18,0.508
2016-10-20 01:03:00,1583E-3,5C000000,-0724,0829,12142,030.5,045.5,0.450,743.8,01.18,0.508
2016-10-20 01:04:00,1675E-3,5C000000,-0724,0830,12211,030.5,045.5,0.449,743.8,01.18,0.508
2016-10-20 01:05:00,1605E-3,5C000000,-0724,0829,12192,030.5,045.5,0.449,743.8,01.18,0.508
2016-10-20 01:06:00,1624E-3,5C000000,-0724,0830,12187,030.5,045.5,0.449,743.8,01.18,0.508
2016-10-20 01:07:00,1635E-3,5C000000,-0724,0830,12234,030.5,045.5,0.449,743.8,01.18,0.508
2016-10-20 01:08:00,1530E-3,5C000000,-0724,0830,12167,030.5,045.5,0.449,743.8,01.18,0.508
2016-10-20 01:09:00,1587E-3,5C000000,-0724,0830,12240,030.5,045.5,0.449,743.7,01.18,0.508
2016-10-20 01:10:00,1467E-3,5C000000,-0724,0829,12244,030.6,045.5,0.449,743.7,01.18,0.508
2016-10-20 01:11:00,1490E-3,5C000000,-0724,0830,12166,030.6,045.5,0.449,743.8,01.18,0.508
2016-10-20 01:12:00,1520E-3,5C000000,-0724,0829,12248,030.6,045.5,0.449,743.8,01.18,0.508
2016-10-20 01:13:00,1553E-3,5C000000,-0724,0829,12329,030.6,045.5,0.450,743.8,01.18,0.508
2016-10-20 01:14:00,1478E-3,5C000000,-0724,0829,12203,030.6,045.5,0.450,743.8,01.18,0.508
2016-10-20 01:15:00,1496E-3,5C000000,-0724,0830,12246,030.6,045.5,0.450,743.8,01.18,0.508
2016-10-20 01:16:00,1561E-3,5C000000,-0724,0829,12128,030.6,045.5,0.449,743.8,01.18,0.508
2016-10-20 01:17:00,1592E-3,5C000000,-0724,0829,12212,030.7,045.6,0.449,743.7,01.18,0.508
2016-10-20 01:18:00,1731E-3,5C000000,-0724,0829,12187,030.7,045.5,0.449,743.8,01.18,0.508
2016-10-20 01:19:00,1502E-3,5C000000,-0724,0830,12234,030.7,045.5,0.449,743.8,01.18,0.508
2016-10-20 01:20:00,1579E-3,5C000000,-0724,0829,12250,030.7,045.5,0.449,743.8,01.18,0.508
2016-10-20 01:21:00,1533E-3,5C000000,-0724,0829,12227,030.7,045.5,0.450,743.8,01.18,0.508
2016-10-20 01:22:00,1429E-3,5C000000,-0724,0829,12125,030.7,045.5,0.450,743.8,01.18,0.508
2016-10-20 01:23:00,1524E-3,5C000000,-0724,0830,12341,030.7,045.5,0.450,743.8,01.18,0.508
2016-10-20 01:24:00,1486E-3,5C000000,-0724,0829,12318,030.7,045.5,0.450,743.8,01.18,0.508
2016-10-20 01:25:00,1611E-3,5C000000,-0724,0829,12200,030.7,045.5,0.450,743.8,01.18,0.508
2016-10-20 01:26:00,1556E-3,5C000000,-0724,0829,12138,030.7,045.5,0.450,743.8,01.18,0.508
2016-10-20 01:27:00,1579E-3,5C000000,-0724,0830,12132,030.7,045.5,0.450,743.8,01.18,0.508
2016-10-20 01:28:00,1553E-3,5C000000,-0724,0829,12410,030.8,045.5,0.450,743.8,01.18,0.508
2016-10-20 01:29:00,1487E-3,5C000000,-0724,0829,12263,030.8,045.5,0.450,743.8,01.18,0.508
2016-10-20 01:30:00,1597E-3,5C000000,-0724,0829,12285,030.7,045.6,0.450,743.8,01.18,0.508
2016-10-20 01:31:00,1583E-3,5C000000,-0724,0828,12309,030.7,045.5,0.449,743.8,01.18,0.508
2016-10-20 01:32:00,1471E-3,5C000000,-0724,0828,12291,030.7,045.5,0.449,743.8,01.18,0.508
2016-10-20 01:33:00,1674E-3,5C000000,-0724,0829,12253,030.7,045.5,0.449,743.8,01.18,0.508
2016-10-20 01:34:00,1513E-3,5C000000,-0724,0829,12238,030.8,045.5,0.449,743.8,01.18,0.508
2016-10-20 01:35:00,1645E-3,5C000000,-0724,0829,12199,030.8,045.6,0.449,743.8,01.18,0.508
2016-10-20 01:36:00,1653E-3,5C000000,-0724,0829,12237,030.8,045.5,0.449,743.8,01.18,0.508
2016-10-20 01:37:00,1605E-3,5C000000,-0724,0829,12277,030.8,045.6,0.449,743.8,01.18,0.508
2016-10-20 01:38:00,1484E-3,5C000000,-0724,0829,12258,030.8,045.6,0.449,743.9,01.18,0.508
2016-10-20 01:39:00,1463E-3,5C000000,-0724,0828,12225,030.8,045.5,0.450,743.9,01.18,0.508
2016-10-20 01:40:00,1465E-3,5C000000,-0724,0828,12347,030.8,045.5,0.450,743.9,01.18,0.508
2016-10-20 01:41:00,1512E-3,5C000000,-0724,0829,12158,030.8,045.6,0.450,743.9,01.18,0.508
2016-10-20 01:42:00,1518E-3,5C000000,-0724,0829,12217,030.8,045.6,0.450,743.9,01.18,0.508
2016-10-20 01:43:00,1456E-3,5C000000,-0724,0829,12191,030.8,045.6,0.450,743.9,01.18,0.508
2016-10-20 01:44:00,1504E-3,5C000000,-0724,0829,12222,030.8,045.6,0.450,743.9,01.18,0.508
2016-10-20 01:45:00,1604E-3,5C000000,-0724,0830,12376,030.8,045.6,0.449,743.9,01.18,0.508
2016-10-20 01:46:00,1546E-3,5C000000,-0724,0829,12195,030.8,045.5,0.449,743.8,01.18,0.508
2016-10-20 01:47:00,1595E-3,5C000000,-0724,0829,12150,030.8,045.5,0.449,743.9,01.18,0.508
2016-10-20 01:48:00,1584E-3,5C000000,-0724,0828,12233,030.8,045.5,0.449,743.8,01.18,0.508
2016-10-20 01:49:00,1522E-3,5C000000,-0724,0830,12311,030.8,045.6,0.449,743.9,01.18,0.508
2016-10-20 01:50:00,1670E-3,5C000000,-0724,0829,12240,030.8,045.5,0.449,743.8,01.18,0.508
2016-10-20 01:51:00,1493E-3,5C000000,-0724,0829,12241,030.8,045.5,0.449,743.9,01.18,0.508
2016-10-20 01:52:00,1507E-3,5C000000,-0724,0829,12207,030.8,045.6,0.449,743.9,01.18,0.508
2016-10-20 01:53:00,1471E-3,5C000000,-0724,0829,12050,030.8,045.6,0.449,743.8,01.18,0.508
2016-10-20 01:54:00,1639E-3,5C000000,-0724,0829,12181,030.8,045.6,0.449,743.9,01.18,0.508
2016-10-20 01:55:00,1536E-3,5C000000,-0724,0829,12029,030.8,045.6,0.449,743.9,01.18,0.508
2016-10-20 01:56:00,1641E-3,5C000000,-0724,0830,12241,030.8,045.5,0.450,743.9,01.18,0.508
2016-10-20 01:57:00,1557E-3,5C000000,-0724,0829,12256,030.8,045.5,0.450,743.9,01.18,0.508
2016-10-20 01:58:00,1616E-3,5C000000,-0724,0829,12156,030.8,045.5,0.450,744.0,01.18,0.508
2016-10-20 01:59:00,1573E-3,5C000000,-0724,0829,12214,030.8,045.5,0.450,743.9,01.18,0.508
2016-10-20 02:00:00,1532E-3,5C000000,-0724,0829,12174,030.8,045.6,0.450,744.0,01.18,0.508
2016-10-20 02:01:00,1570E-3,5C000000,-0724,0829,12236,030.8,045.6,0.450,744.0,01.18,0.508
2016-10-20 02:02:00,1510E-3,5C000000,-0724,0829,12134,030.8,045.6,0.449,744.0,01.18,0.508
2016-10-20 02:03:00,1517E-3,5C000000,-0724,0829,12149,030.8,045.5,0.449,744.0,01.18,0.508
2016-10-20 02:04:00,1386E-3,5C000000,-0724,0828,12304,030.8,045.6,0.449,744.0,01.18,0.508
2016-10-20 02:05:00,1426E-3,5C000000,-0724,0829,12338,030.9,045.6,0.449,744.0,01.18,0.508
2016-10-20 02:06:00,1599E-3,5C000000,-0724,0829,12150,030.9,045.6,0.449,744.0,01.18,0.508
2016-10-20 02:07:00,1607E-3,5C000000,-0724,0830,12123,030.9,045.5,0.450,744.1,01.18,0.508
2016-10-20 02:08:00,1528E-3,5C000000,-0724,0830,12032,030.9,045.5,0.450,744.1,01.18,0.508
2016-10-20 02:09:00,1506E-3,5C000000,-0724,0830,12102,030.9,045.5,0.450,744.1,01.18,0.508
2016-10-20 02:10:00,1432E-3,5C000000,-0724,0829,12224,030.9,045.6,0.450,744.1,01.18,0.508
2016-10-20 02:11:00,1542E-3,5C000000,-0724,0830,12118,030.9,045.6,0.450,744.1,01.18,0.508
2016-10-20 02:12:00,1642E-3,5C000000,-0724,0829,11985,030.9,045.6,0.449,744.1,01.18,0.508
2016-10-20 02:13:00,1527E-3,5C000000,-0724,0830,12315,030.9,045.5,0.449,744.1,01.18,0.508
2016-10-20 02:14:00,1582E-3,5C000000,-0724,0829,12229,030.9,045.6,0.449,744.1,01.18,0.508
2016-10-20 02:15:00,1467E-3,5C000000,-0724,0828,12235,030.9,045.6,0.449,744.2,01.18,0.508
2016-10-20 02:16:00,1421E-3,5C000000,-0724,0829,12165,030.9,045.6,0.450,744.1,01.18,0.508
2016-10-20 02:17:00,1551E-3,5C000000,-0724,0828,12151,031.0,045.6,0.450,744.1,01.18,0.508
2016-10-20 02:18:00,1516E-3,5C000000,-0724,0829,12115,030.9,045.5,0.450,744.1,01.18,0.508
2016-10-20 02:19:00,1543E-3,5C000000,-0724,0829,12273,031.0,045.5,0.450,744.1,01.18,0.508
2016-10-20 02:20:00,1426E-3,5C000000,-0724,0829,12118,031.0,045.5,0.449,744.1,01.18,0.508
2016-10-20 02:21:00,1568E-3,5C000000,-0724,0828,12226,031.0,045.6,0.449,744.1,01.18,0.508
2016-10-20 02:22:00,1539E-3,5C000000,-0724,0830,12224,031.0,045.6,0.449,744.1,01.18,0.508
2016-10-20 02:23:00,1503E-3,5C000000,-0724,0829,12263,031.0,045.6,0.449,744.1,01.18,0.508
2016-10-20 02:24:00,1439E-3,5C000000,-0724,0829,12241,031.0,045.6,0.450,744.1,01.18,0.508
2016-10-20 02:25:00,1644E-3,5C000000,-0724,0828,12241,031.0,045.5,0.450,744.1,01.18,0.508
2016-10-20 02:26:00,1596E-3,5C000000,-0724,0830,12075,031.0,045.6,0.450,744.1,01.18,0.508
2016-10-20 02:27:00,1479E-3,5C000000,-0724,0829,12079,031.0,045.5,0.449,744.1,01.18,0.508
2016-10-20 02:28:00,1671E-3,5C000000,-0724,0829,12176,031.0,045.5,0.449,744.1,01.18,0.508
2016-10-20 02:29:00,1500E-3,5C000000,-0724,0829,12238,031.0,045.6,0.449,744.1,01.18,0.508
2016-10-20 02:30:00,1569E-3,5C000000,-0724,0830,12245,031.0,045.6,0.449,744.1,01.18,0.508
2016-10-20 02:31:00,1662E-3,5C000000,-0724,0829,12249,031.1,045.6,0.449,744.1,01.18,0.508
2016-10-20 02:32:00,1520E-3,5C000000,-0724,0828,12180,031.1,045.6,0.450,744.0,01.18,0.508
2016-10-20 02:33:00,1630E-3,5C000000,-0724,0830,12291,031.1,045.5,0.450,744.1,01.18,0.508
2016-10-20 02:34:00,1614E-3,5C000000,-0724,0829,12313,031.1,045.5,0.450,744.1,01.18,0.508
2016-10-20 02:35:00,1591E-3,5C000000,-0724,0830,12290,031.1,045.5,0.449,744.1,01.18,0.508
2016-10-20 02:36:00,1531E-3,5C000000,-0724,0829,12019,031.1,045.6,0.449,744.1,01.18,0.508
2016-10-20 02:37:00,1410E-3,5C000000,-0724,0829,12209,031.1,045.6,0.449,744.1,01.18,0.508
2016-10-20 02:38:00,1636E-3,5C000000,-0724,0829,12169,031.1,045.6,0.449,744.1,01.18,0.508
2016-10-20 02:39:00,1529E-3,5C000000,-0724,0829,12062,031.1,045.6,0.450,744.1,01.18,0.508
2016-10-20 02:40:00,1403E-3,5C000000,-0724,0829,12248,031.1,045.6,0.450,744.1,01.18,0.508
2016-10-20 02:41:00,1437E-3,5C000000,-0724,0829,12141,031.1,045.6,0.450,744.1,01.18,0.508
2016-10-20 02:42:00,1583E-3,5C000000,-0724,0830,12290,031.1,045.6,0.449,744.1,01.18,0.508
2016-10-20 02:43:00,1485E-3,5C000000,-0724,0829,12303,031.1,045.5,0.449,744.1,01.18,0.508
2016-10-20 02:44:00,1476E-3,5C000000,-0724,0830,12195,031.1,045.6,0.449,744.1,01.18,0.508
2016-10-20 02:45:00,1496E-3,5C000000,-0724,0829,12198,031.1,045.5,0.449,744.1,01.18,0.508
2016-10-20 02:46:00,1478E-3,5C000000,-0724,0829,12225,031.1,045.6,0.449,744.1,01.18,0.508
2016-10-20 02:47:00,1607E-3,5C000000,-0724,0829,12258,031.1,045.5,0.449,744.1,01.18,0.508
2016-10-20 02:48:00,1542E-3,5C000000,-0724,0829,12239,031.1,045.5,0.449,744.1,01.18,0.508
2016-10-20 02:49:00,1531E-3,5C000000,-0724,0829,12136,031.1,045.6,0.449,744.1,01.18,0.508
2016-10-20 02:50:00,1569E-3,5C000000,-0724,0829,12276,031.1,045.6,0.449,744.2,01.18,0.508
2016-10-20 02:51:00,1462E-3,5C000000,-0724,0828,12188,031.1,045.5,0.449,744.2,01.18,0.508
2016-10-20 02:52:00,1532E-3,5C000000,-0724,0829,12085,031.0,045.6,0.449,744.2,01.18,0.508
2016-10-20 02:53:00,1651E-3,5C000000,-0724,0829,12266,031.0,045.6,0.449,744.1,01.18,0.508
2016-10-20 02:54:00,1610E-3,5C000000,-0724,0829,12162,031.0,045.6,0.449,744.1,01.18,0.508
2016-10-20 02:55:00,1561E-3,5C000000,-0724,0828,11115,031.1,045.6,0.449,744.1,01.18,0.508
2016-10-20 02:56:00,1630E-3,5C000000,-0724,0829,12162,031.0,045.6,0.449,744.1,01.18,0.508
2016-10-20 02:57:00,1623E-3,5C000000,-0724,0829,12251,031.0,045.6,0.449,744.1,01.18,0.508
2016-10-20 02:58:00,1610E-3,5C000000,-0724,0829,12230,031.0,045.6,0.449,744.1,01.18,0.508
2016-10-20 02:59:00,1578E-3,5C000000,-0724,0829,12235,031.0,045.5,0.449,744.1,01.18,0.508
2016-10-20 03:00:00,1552E-3,5C000000,-0724,0828,12201,031.0,045.6,0.449,744.1,01.18,0.508
2016-10-20 03:01:00,1453E-3,5C000000,-0724,0828,12150,031.0,045.6,0.449,744.1,01.18,0.508
2016-10-20 03:02:00,1516E-3,5C000000,-0724,0828,12285,031.0,045.6,0.450,744.2,01.18,0.508
2016-10-20 03:03:00,1583E-3,5C000000,-0724,0828,12166,030.9,045.6,0.450,744.2,01.18,0.508
2016-10-20 03:04:00,1550E-3,5C000000,-0724,0829,12077,031.0,045.6,0.449,744.1,01.18,0.508
2016-10-20 03:05:00,1659E-3,5C000000,-0724,0828,12150,031.0,045.6,0.449,744.1,01.18,0.508
2016-10-20 03:06:00,1580E-3,5C000000,-0724,0829,12253,031.0,045.5,0.449,744.2,01.18,0.508
2016-10-20 03:07:00,1529E-3,5C000000,-0724,0829,12275,031.0,045.5,0.449,744.1,01.18,0.508
2016-10-20 03:08:00,1579E-3,5C000000,-0724,0829,12182,030.9,045.5,0.449,744.2,01.18,0.508
2016-10-20 03:09:00,1671E-3,5C000000,-0724,0830,12187,030.9,045.6,0.449,744.2,01.18,0.508
2016-10-20 03:10:00,1456E-3,5C000000,-0724,0827,12290,030.9,045.5,0.449,744.2,01.18,0.508
2016-10-20 03:11:00,1623E-3,5C000000,-0724,0828,12247,030.9,045.5,0.449,744.2,01.18,0.508
2016-10-20 03:12:00,1559E-3,5C000000,-0724,0829,12182,030.9,045.5,0.450,744.3,01.18,0.508
2016-10-20 03:13:00,1614E-3,5C000000,-0724,0828,12142,030.9,045.6,0.450,744.3,01.18,0.508
2016-10-20 03:14:00,1647E-3,5C000000,-0724,0828,12230,030.9,045.5,0.450,744.3,01.18,0.508
2016-10-20 03:15:00,1531E-3,5C000000,-0724,0828,12345,030.9,045.5,0.450,744.3,01.18,0.508
2016-10-20 03:16:00,1721E-3,5C000000,-0724,0826,12319,030.9,045.5,0.449,744.3,01.18,0.508
2016-10-20 03:17:00,1636E-3,5C000000,-0724,0828,12175,030.9,045.5,0.449,744.3,01.18,0.508
2016-10-20 03:18:00,1600E-3,5C000000,-0724,0827,12243,030.9,045.6,0.449,744.3,01.18,0.508
2016-10-20 03:19:00,1510E-3,5C000000,-0724,0828,12200,030.8,045.5,0.449,744.3,01.18,0.508
2016-10-20 03:20:00,1582E-3,5C000000,-0724,0827,12088,030.8,045.5,0.450,744.3,01.18,0.508
2016-10-20 03:21:00,1562E-3,5C000000,-0724,0828,12154,030.8,045.6,0.450,744.3,01.18,0.508
2016-10-20 03:22:00,1520E-3,5C000000,-0724,0829,12296,030.8,045.6,0.450,744.3,01.18,0.508
2016-10-20 03:23:00,1669E-3,5C000000,-0724,0827,12360,030.8,045.6,0.450,744.4,01.18,0.508
2016-10-20 03:24:00,1471E-3,5C000000,-0724,0829,12386,030.8,045.6,0.449,744.3,01.18,0.508
2016-10-20 03:25:00,1635E-3,5C000000,-0724,0829,12352,030.8,045.6,0.449,744.3,01.18,0.508
2016-10-20 03:26:00,1471E-3,5C000000,-0724,0829,12342,030.8,045.5,0.449,744.3,01.18,0.508
2016-10-20 03:27:00,1581E-3,5C000000,-0724,0829,12095,030.8,045.5,0.449,744.3,01.18,0.508
2016-10-20 03:28:00,1581E-3,5C000000,-0724,0829,12159,030.8,045.6,0.449,744.3,01.18,0.508
2016-10-20 03:29:00,1600E-3,5C000000,-0724,0829,12306,030.8,045.5,0.450,744.3,01.18,0.508
2016-10-20 03:30:00,1645E-3,5C000000,-0724,0829,12045,030.8,045.6,0.450,744.3,01.18,0.508
2016-10-20 03:31:00,1570E-3,5C000000,-0724,0829,12171,030.7,045.6,0.450,744.3,01.18,0.508
2016-10-20 03:32:00,1530E-3,5C000000,-0724,0829,12222,030.8,045.6,0.450,744.3,01.18,0.508
2016-10-20 03:33:00,1469E-3,5C000000,-0724,0829,12225,030.8,045.5,0.449,744.3,01.18,0.508
2016-10-20 03:34:00,1513E-3,5C000000,-0724,0829,12212,030.8,045.5,0.449,744.3,01.18,0.508
2016-10-20 03:35:00,1581E-3,5C000000,-0724,0830,12193,030.8,045.6,0.450,744.3,01.18,0.508
2016-10-20 03:36:00,1483E-3,5C000000,-0724,0829,12161,030.8,045.6,0.450,744.3,01.18,0.508
2016-10-20 03:37:00,1556E-3,5C000000,-0724,0829,12186,030.8,045.6,0.450,744.3,01.18,0.508
2016-10-20 03:38:00,1607E-3,5C000000,-0724,0830,12296,030.7,045.5,0.450,744.3,01.18,0.508
2016-10-20 03:39:00,1692E-3,5C000000,-0724,0829,12261,030.7,045.5,0.450,744.3,01.18,0.508
2016-10-20 03:40:00,1576E-3,5C000000,-0724,0829,12174,030.7,045.5,0.450,744.3,01.18,0.508
2016-10-20 03:41:00,1628E-3,5C000000,-0724,0829,12240,030.8,045.6,0.449,744.3,01.18,0.508
2016-10-20 03:42:00,1534E-3,5C000000,-0724,0829,12259,030.8,045.6,0.449,744.3,01.18,0.508
2016-10-20 03:43:00,1519E-3,5C000000,-0724,0829,12061,030.8,045.6,0.449,744.3,01.18,0.508
2016-10-20 03:44:00,1500E-3,5C000000,-0724,0829,12200,030.7,045.5,0.450,744.3,01.18,0.508
2016-10-20 03:45:00,1553E-3,5C000000,-0724,0829,12213,030.8,045.5,0.450,744.3,01.18,0.508
2016-10-20 03:46:00,1538E-3,5C000000,-0724,0830,12176,030.8,045.5,0.450,744.3,01.18,0.508
2016-10-20 03:47:00,1550E-3,5C000000,-0724,0830,12142,030.8,045.5,0.450,744.3,01.18,0.508
2016-10-20 03:48:00,1554E-3,5C000000,-0724,0830,12033,030.8,045.6,0.450,744.3,01.18,0.508
2016-10-20 03:49:00,1583E-3,5C000000,-0724,0830,12309,030.8,045.5,0.449,744.3,01.18,0.508
2016-10-20 03:50:00,1521E-3,5C000000,-0724,0830,12275,030.8,045.5,0.449,744.3,01.18,0.508
2016-10-20 03:51:00,1558E-3,5C000000,-0724,0829,12210,030.7,045.5,0.449,744.3,01.18,0.508
2016-10-20 03:52:00,1442E-3,5C000000,-0724,0830,12088,030.7,045.5,0.449,744.4,01.18,0.508
2016-10-20 03:53:00,1462E-3,5C000000,-0724,0830,12263,030.8,045.5,0.450,744.4,01.18,0.508
2016-10-20 03:54:00,1579E-3,5C000000,-0724,0829,12256,030.8,045.5,0.450,744.4,01.18,0.508
2016-10-20 03:55:00,1550E-3,5C000000,-0724,0829,12062,030.7,045.5,0.450,744.3,01.18,0.508
2016-10-20 03:56:00,1598E-3,5C000000,-0724,0829,12219,030.7,045.5,0.450,744.4,01.18,0.508
2016-10-20 03:57:00,1555E-3,5C000000,-0724,0830,12096,030.7,045.5,0.450,744.3,01.18,0.508
2016-10-20 03:58:00,1485E-3,5C000000,-0724,0829,12268,030.7,045.5,0.450,744.3,01.18,0.508
2016-10-20 03:59:00,1595E-3,5C000000,-0724,0829,12210,030.7,045.6,0.450,744.3,01.18,0.508
2016-10-20 04:00:00,1616E-3,5C000000,-0724,0829,12220,030.7,045.5,0.449,744.4,01.18,0.508
2016-10-20 04:01:00,1541E-3,5C000000,-0724,0829,12130,030.7,045.5,0.449,744.4,01.18,0.508
2016-10-20 04:02:00,1640E-3,5C000000,-0724,0829,12241,030.7,045.5,0.449,744.4,01.18,0.508
2016-10-20 04:03:00,1579E-3,5C000000,-0724,0830,12054,030.8,045.5,0.449,744.4,01.18,0.508
2016-10-20 04:04:00,1677E-3,5C000000,-0724,0830,12036,030.7,045.6,0.450,744.4,01.18,0.508
2016-10-20 04:05:00,1581E-3,5C000000,-0724,0830,12211,030.8,045.6,0.450,744.4,01.18,0.508
2016-10-20 04:06:00,1495E-3,5C000000,-0724,0830,12121,030.7,045.5,0.450,744.4,01.18,0.508
2016-10-20 04:07:00,1619E-3,5C000000,-0724,0830,12251,030.7,045.5,0.450,744.4,01.18,0.508
2016-10-20 04:08:00,1492E-3,5C000000,-0724,0830,12193,030.7,045.5,0.449,744.4,01.18,0.508
2016-10-20 04:09:00,1542E-3,5C000000,-0724,0829,12171,030.7,045.5,0.449,744.3,01.18,0.508
2016-10-20 04:10:00,1507E-3,5C000000,-0724,0829,12132,030.7,045.5,0.449,744.4,01.18,0.508
2016-10-20 04:11:00,1493E-3,5C000000,-0724,0830,12207,030.8,045.5,0.450,744.4,01.18,0.508
2016-10-20 04:12:00,1503E-3,5C000000,-0724,0829,12213,030.8,045.5,0.450,744.4,01.18,0.508
2016-10-20 04:13:00,1428E-3,5C000000,-0724,0830,12128,030.8,045.5,0.450,744.4,01.18,0.508
2016-10-20 04:14:00,1456E-3,5C000000,-0724,0829,12150,030.8,045.5,0.450,744.3,01.18,0.508
2016-10-20 04:15:00,1601E-3,5C000000,-0724,0829,12220,030.8,045.5,0.449,744.3,01.18,0.508
2016-10-20 04:16:00,1502E-3,5C000000,-0724,0829,12124,030.8,045.5,0.449,744.4,01.18,0.508
2016-10-20 04:17:00,1574E-3,5C000000,-0724,0829,12166,030.7,045.5,0.449,744.3,01.18,0.508
2016-10-20 04:18:00,1455E-3,5C000000,-0724,0830,12138,030.8,045.6,0.450,744.3,01.18,0.508
2016-10-20 04:19:00,1493E-3,5C000000,-0724,0829,12224,030.7,045.6,0.450,744.2,01.18,0.508
2016-10-20 04:20:00,1420E-3,5C000000,-0724,0829,12199,030.7,045.6,0.450,744.2,01.18,0.508